ASA2385 KPDX-KGEG

Flight info

Callsign ASA2385
Flight time 0h 50m
Altitude 33000
Route LAVAA7 SUNED ZOOMR ZOOMR2
Aircraft A320/M-SDE3FGHIRWY/LB1

Departure

Time 2026-04-25 17:15
Airport Portland International Airport (KPDX)

Arrival

Time 2026-04-25 18:06
Airport Spokane International Airport (KGEG)
Time Latitude Longitude Altitude Speed Heading
2026-04-25 16:57 45.58937 -122.59901 33 ft 0 kts 43°
2026-04-25 16:58 45.58936 -122.59901 32 ft 0 kts 43°
2026-04-25 17:07 45.58935 -122.59903 33 ft 2 kts 43°
2026-04-25 17:07 45.58922 -122.59920 31 ft 2 kts 43°
2026-04-25 17:07 45.58911 -122.59937 32 ft 2 kts 86°
2026-04-25 17:07 45.58912 -122.59955 31 ft 0 kts 134°
2026-04-25 17:10 45.58887 -122.59939 32 ft 5 kts 168°
2026-04-25 17:10 45.58824 -122.59934 34 ft 14 kts 176°
2026-04-25 17:10 45.58751 -122.59867 37 ft 12 kts 122°
2026-04-25 17:11 45.58726 -122.59800 36 ft 11 kts 118°
2026-04-25 17:11 45.58690 -122.59704 34 ft 18 kts 118°
2026-04-25 17:11 45.58615 -122.59515 34 ft 23 kts 119°
2026-04-25 17:11 45.58532 -122.59302 31 ft 26 kts 119°
2026-04-25 17:12 45.58467 -122.59137 31 ft 17 kts 119°
2026-04-25 17:12 45.58410 -122.58989 31 ft 16 kts 118°
2026-04-25 17:12 45.58347 -122.58827 33 ft 21 kts 119°
2026-04-25 17:12 45.58276 -122.58642 33 ft 21 kts 119°
2026-04-25 17:13 45.58205 -122.58459 30 ft 22 kts 119°
2026-04-25 17:13 45.58164 -122.58362 30 ft 12 kts 134°
2026-04-25 17:13 45.58152 -122.58353 30 ft 0 kts 158°
2026-04-25 17:13 45.58150 -122.58352 30 ft 2 kts 159°
2026-04-25 17:14 45.58093 -122.58376 31 ft 11 kts 213°
2026-04-25 17:14 45.58078 -122.58456 33 ft 7 kts 283°
2026-04-25 17:14 45.58096 -122.58512 34 ft 5 kts 298°
2026-04-25 17:14 45.58099 -122.58518 34 ft 0 kts 299°
2026-04-25 17:15 45.58237 -122.58870 35 ft 86 kts 299°
2026-04-25 17:15 45.58659 -122.59944 41 ft 157 kts 299°
2026-04-25 17:15 45.59236 -122.61364 695 ft 167 kts 301°
2026-04-25 17:15 45.59850 -122.62821 1596 ft 175 kts 302°
2026-04-25 17:16 45.60498 -122.64348 2296 ft 186 kts 302°
2026-04-25 17:16 45.61214 -122.66026 2595 ft 209 kts 302°
2026-04-25 17:16 45.62011 -122.67910 2934 ft 234 kts 302°
2026-04-25 17:16 45.62880 -122.70013 3358 ft 258 kts 301°
2026-04-25 17:17 45.63810 -122.72296 4041 ft 270 kts 301°
2026-04-25 17:17 45.64747 -122.74613 4928 ft 274 kts 301°
2026-04-25 17:17 45.65759 -122.76942 5814 ft 277 kts 311°
2026-04-25 17:17 45.67267 -122.78614 6703 ft 276 kts 339°
2026-04-25 17:18 45.69126 -122.79153 7602 ft 273 kts
2026-04-25 17:18 45.70952 -122.78490 8496 ft 271 kts 28°
2026-04-25 17:18 45.72607 -122.77183 9432 ft 271 kts 30°
2026-04-25 17:18 45.74099 -122.75578 10284 ft 273 kts 46°
2026-04-25 17:19 45.75192 -122.73339 11083 ft 279 kts 62°
2026-04-25 17:19 45.75783 -122.70575 11404 ft 306 kts 81°
2026-04-25 17:19 45.75799 -122.67405 11631 ft 330 kts 88°
2026-04-25 17:19 45.75749 -122.64060 12195 ft 340 kts 88°
2026-04-25 17:20 45.75701 -122.60649 12865 ft 345 kts 88°
2026-04-25 17:20 45.75656 -122.57148 13566 ft 350 kts 87°
2026-04-25 17:20 45.75618 -122.53681 14194 ft 354 kts 86°
2026-04-25 17:20 45.75581 -122.50135 14820 ft 358 kts 87°
2026-04-25 17:21 45.75543 -122.46552 15476 ft 362 kts 87°
2026-04-25 17:21 45.75502 -122.42942 16089 ft 365 kts 87°
2026-04-25 17:21 45.75457 -122.39287 16715 ft 369 kts 87°
2026-04-25 17:21 45.75411 -122.35587 17322 ft 372 kts 88°
2026-04-25 17:22 45.75365 -122.31863 17927 ft 376 kts 88°
2026-04-25 17:22 45.75334 -122.29374 18319 ft 378 kts 88°
2026-04-25 17:22 45.75266 -122.24297 19057 ft 382 kts 88°
2026-04-25 17:22 45.75213 -122.20482 19621 ft 384 kts 88°
2026-04-25 17:23 45.75158 -122.16646 20173 ft 386 kts 89°
2026-04-25 17:23 45.75101 -122.12789 20693 ft 389 kts 89°
2026-04-25 17:23 45.75041 -122.08910 21217 ft 391 kts 89°
2026-04-25 17:23 45.74980 -122.05061 21737 ft 393 kts 89°
2026-04-25 17:24 45.74917 -122.01094 22251 ft 395 kts 89°
2026-04-25 17:24 45.74855 -121.97192 22754 ft 397 kts 90°
2026-04-25 17:24 45.74790 -121.93225 23252 ft 400 kts 90°
2026-04-25 17:24 45.74757 -121.89238 23701 ft 401 kts 86°
2026-04-25 17:25 45.75101 -121.85260 24101 ft 402 kts 76°
2026-04-25 17:25 45.75905 -121.81427 24484 ft 403 kts 67°
2026-04-25 17:25 45.77020 -121.77723 24860 ft 405 kts 66°
2026-04-25 17:25 45.78145 -121.74000 25230 ft 407 kts 66°
2026-04-25 17:26 45.79251 -121.70310 25599 ft 409 kts 66°
2026-04-25 17:26 45.80373 -121.66548 25973 ft 411 kts 66°
2026-04-25 17:26 45.81500 -121.62757 26339 ft 413 kts 66°
2026-04-25 17:26 45.82627 -121.58953 26703 ft 416 kts 66°
2026-04-25 17:27 45.83760 -121.55120 27070 ft 418 kts 66°
2026-04-25 17:27 45.84891 -121.51284 27438 ft 420 kts 66°
2026-04-25 17:27 45.86036 -121.47417 27803 ft 422 kts 66°
2026-04-25 17:27 45.86423 -121.46112 27924 ft 422 kts 66°
2026-04-25 17:28 45.88336 -121.39659 28568 ft 423 kts 66°
2026-04-25 17:28 45.89489 -121.35763 28896 ft 425 kts 66°
2026-04-25 17:28 45.90647 -121.31840 29217 ft 427 kts 67°
2026-04-25 17:28 45.91803 -121.27908 29530 ft 428 kts 67°
2026-04-25 17:29 45.92957 -121.23964 29845 ft 430 kts 67°
2026-04-25 17:29 45.94119 -121.19987 30141 ft 432 kts 67°
2026-04-25 17:29 45.95281 -121.15999 30384 ft 434 kts 67°
2026-04-25 17:29 45.96448 -121.11993 30637 ft 435 kts 67°
2026-04-25 17:30 45.97614 -121.07988 30987 ft 434 kts 66°
2026-04-25 17:30 45.98779 -121.03985 31284 ft 434 kts 66°
2026-04-25 17:30 45.99931 -121.00019 31560 ft 435 kts 66°
2026-04-25 17:30 46.01100 -120.95989 31841 ft 436 kts 66°
2026-04-25 17:31 46.02273 -120.91940 32120 ft 437 kts 66°
2026-04-25 17:31 46.03442 -120.87899 32395 ft 438 kts 66°
2026-04-25 17:31 46.04615 -120.83838 32668 ft 439 kts 66°
2026-04-25 17:31 46.05791 -120.79768 32935 ft 440 kts 66°
2026-04-25 17:32 46.08110 -120.71714 33007 ft 437 kts 66°
2026-04-25 17:32 46.10430 -120.63617 33009 ft 436 kts 66°
2026-04-25 17:33 46.12733 -120.55528 33010 ft 436 kts 66°
2026-04-25 17:33 46.15035 -120.47416 33010 ft 436 kts 66°
2026-04-25 17:34 46.17321 -120.39355 33016 ft 436 kts 66°
2026-04-25 17:34 46.19619 -120.31257 33019 ft 435 kts 66°
2026-04-25 17:35 46.21908 -120.23152 33011 ft 435 kts 67°
2026-04-25 17:35 46.24186 -120.15037 33007 ft 435 kts 67°
2026-04-25 17:36 46.26439 -120.06969 33013 ft 435 kts 67°
2026-04-25 17:36 46.28778 -119.98914 33008 ft 433 kts 61°
2026-04-25 17:37 46.32339 -119.91956 32994 ft 431 kts 44°
2026-04-25 17:37 46.36638 -119.85897 32989 ft 431 kts 44°
2026-04-25 17:38 46.39475 -119.81865 32993 ft 431 kts 44°
2026-04-25 17:38 46.45188 -119.73711 33021 ft 430 kts 44°
2026-04-25 17:39 46.49441 -119.67629 33012 ft 429 kts 44°
2026-04-25 17:39 46.53670 -119.61578 33020 ft 428 kts 44°
2026-04-25 17:40 46.57920 -119.55483 33025 ft 428 kts 44°
2026-04-25 17:40 46.62150 -119.49385 33045 ft 428 kts 44°
2026-04-25 17:41 46.66385 -119.43276 33050 ft 428 kts 44°
2026-04-25 17:41 46.70618 -119.37168 33044 ft 428 kts 44°
2026-04-25 17:42 46.74816 -119.31094 33056 ft 427 kts 44°
2026-04-25 17:42 46.79029 -119.24972 33055 ft 427 kts 44°
2026-04-25 17:43 46.83237 -119.18847 33074 ft 427 kts 44°
2026-04-25 17:43 46.87435 -119.12721 33082 ft 426 kts 44°
2026-04-25 17:44 46.91641 -119.06601 32970 ft 427 kts 44°
2026-04-25 17:44 46.93737 -119.03527 32700 ft 426 kts 45°
2026-04-25 17:44 46.95825 -119.00449 32434 ft 426 kts 45°
2026-04-25 17:45 46.97916 -118.97365 32065 ft 426 kts 45°
2026-04-25 17:45 46.98593 -118.96368 31730 ft 427 kts 45°
2026-04-25 17:45 47.02126 -118.91169 30515 ft 425 kts 45°
2026-04-25 17:45 47.04198 -118.88114 29882 ft 420 kts 46°
2026-04-25 17:46 47.05559 -118.86106 29470 ft 417 kts 46°
2026-04-25 17:46 47.08246 -118.82143 28725 ft 408 kts 45°
2026-04-25 17:46 47.09591 -118.80159 28334 ft 405 kts 45°
2026-04-25 17:46 47.11567 -118.77239 27784 ft 400 kts 45°
2026-04-25 17:47 47.14136 -118.73424 27060 ft 394 kts 45°
2026-04-25 17:47 47.15432 -118.71497 26696 ft 391 kts 45°
2026-04-25 17:47 47.17317 -118.68697 26147 ft 387 kts 45°
2026-04-25 17:47 47.19206 -118.65896 25638 ft 383 kts 45°
2026-04-25 17:48 47.22915 -118.60375 24635 ft 376 kts 45°
2026-04-25 17:48 47.24744 -118.57646 24132 ft 373 kts 45°
2026-04-25 17:48 47.26559 -118.54943 23652 ft 370 kts 45°
2026-04-25 17:49 47.28359 -118.52261 23151 ft 366 kts 45°
2026-04-25 17:49 47.30136 -118.49602 22701 ft 361 kts 45°
2026-04-25 17:49 47.31881 -118.46980 22271 ft 357 kts 45°
2026-04-25 17:49 47.33609 -118.44379 21847 ft 354 kts 45°
2026-04-25 17:50 47.35326 -118.41799 21427 ft 351 kts 44°
2026-04-25 17:50 47.37034 -118.39234 21011 ft 350 kts 44°
2026-04-25 17:50 47.38734 -118.36682 20583 ft 348 kts 44°
2026-04-25 17:50 47.40424 -118.34138 20154 ft 346 kts 45°
2026-04-25 17:51 47.41924 -118.31365 19713 ft 346 kts 56°
2026-04-25 17:51 47.43054 -118.28224 19275 ft 347 kts 66°
2026-04-25 17:51 47.43819 -118.24845 18807 ft 347 kts 71°
2026-04-25 17:51 47.44520 -118.21423 18344 ft 347 kts 71°
2026-04-25 17:52 47.45223 -118.18015 17828 ft 346 kts 71°
2026-04-25 17:52 47.45690 -118.15752 17537 ft 345 kts 71°
2026-04-25 17:52 47.46612 -118.11284 16930 ft 342 kts 71°
2026-04-25 17:52 47.47305 -118.07924 16447 ft 341 kts 71°
2026-04-25 17:53 47.47996 -118.04572 15989 ft 341 kts 72°
2026-04-25 17:53 47.48682 -118.01223 15527 ft 340 kts 72°
2026-04-25 17:53 47.49364 -117.97873 15064 ft 340 kts 72°
2026-04-25 17:53 47.50046 -117.94523 14604 ft 340 kts 72°
2026-04-25 17:54 47.50741 -117.91173 14131 ft 344 kts 70°
2026-04-25 17:54 47.51702 -117.87932 13651 ft 344 kts 63°
2026-04-25 17:54 47.52751 -117.84747 13115 ft 344 kts 63°
2026-04-25 17:54 47.53816 -117.81574 12604 ft 343 kts 63°
2026-04-25 17:55 47.54883 -117.78425 12332 ft 340 kts 63°
2026-04-25 17:55 47.55952 -117.75292 12317 ft 341 kts 63°
2026-04-25 17:55 47.57013 -117.72187 12113 ft 333 kts 63°
2026-04-25 17:55 47.58038 -117.69194 11966 ft 316 kts 63°
2026-04-25 17:56 47.58995 -117.66397 11640 ft 302 kts 63°
2026-04-25 17:56 47.60104 -117.63811 11065 ft 295 kts 47°
2026-04-25 17:56 47.61539 -117.61647 10475 ft 295 kts 43°
2026-04-25 17:56 47.63021 -117.59549 10155 ft 294 kts 43°
2026-04-25 17:57 47.64500 -117.57471 9802 ft 292 kts 43°
2026-04-25 17:57 47.65977 -117.55400 9420 ft 291 kts 43°
2026-04-25 17:57 47.67452 -117.53345 9034 ft 290 kts 43°
2026-04-25 17:57 47.68427 -117.51996 8789 ft 288 kts 43°
2026-04-25 17:58 47.70390 -117.49294 8285 ft 286 kts 43°
2026-04-25 17:58 47.71847 -117.47298 7904 ft 284 kts 43°
2026-04-25 17:58 47.73296 -117.45314 7561 ft 282 kts 43°
2026-04-25 17:58 47.74738 -117.43357 7210 ft 280 kts 43°
2026-04-25 17:59 47.76173 -117.41421 6864 ft 277 kts 43°
2026-04-25 17:59 47.77605 -117.39507 6512 ft 276 kts 43°
2026-04-25 17:59 47.79031 -117.37615 6164 ft 274 kts 43°
2026-04-25 17:59 47.80433 -117.35771 5774 ft 271 kts 43°
2026-04-25 18:00 47.81668 -117.33694 5517 ft 266 kts 64°
2026-04-25 18:00 47.82102 -117.31102 5519 ft 252 kts 93°
2026-04-25 18:00 47.81638 -117.28715 5519 ft 233 kts 124°
2026-04-25 18:00 47.80476 -117.27204 5517 ft 219 kts 158°
2026-04-25 18:01 47.78982 -117.26920 5522 ft 220 kts 191°
2026-04-25 18:01 47.77688 -117.28066 5520 ft 223 kts 233°
2026-04-25 18:01 47.77107 -117.30199 5527 ft 226 kts 253°
2026-04-25 18:01 47.76390 -117.32234 5505 ft 219 kts 220°
2026-04-25 18:02 47.75234 -117.33575 5523 ft 205 kts 220°
2026-04-25 18:02 47.74216 -117.35037 5495 ft 200 kts 224°
2026-04-25 18:02 47.73269 -117.36478 5260 ft 194 kts 224°
2026-04-25 18:02 47.72349 -117.37878 5005 ft 185 kts 224°
2026-04-25 18:03 47.71467 -117.39214 4770 ft 177 kts 224°
2026-04-25 18:03 47.70624 -117.40491 4541 ft 169 kts 223°
2026-04-25 18:03 47.69815 -117.41715 4304 ft 163 kts 223°
2026-04-25 18:03 47.69036 -117.42893 4083 ft 156 kts 223°
2026-04-25 18:04 47.68284 -117.44030 3877 ft 153 kts 224°
2026-04-25 18:04 47.67542 -117.45151 3638 ft 151 kts 223°
2026-04-25 18:04 47.66802 -117.46268 3451 ft 151 kts 223°
2026-04-25 18:04 47.66073 -117.47370 3224 ft 149 kts 222°
2026-04-25 18:05 47.65353 -117.48461 3026 ft 148 kts 224°
2026-04-25 18:05 47.64623 -117.49556 2784 ft 149 kts 224°
2026-04-25 18:05 47.63898 -117.50651 2609 ft 149 kts 225°
2026-04-25 18:05 47.63170 -117.51747 2423 ft 148 kts 225°
2026-04-25 18:06 47.62482 -117.52791 2368 ft 125 kts 225°
2026-04-25 18:06 47.62072 -117.53412 2367 ft 29 kts 233°
2026-04-25 18:06 47.62029 -117.53605 2367 ft 24 kts 251°
2026-04-25 18:06 47.61990 -117.53799 2367 ft 18 kts 266°
2026-04-25 18:07 47.62065 -117.53822 2367 ft 16 kts 45°
2026-04-25 18:07 47.62135 -117.53722 2367 ft 0 kts 40°
2026-04-25 18:07 47.62136 -117.53721 2367 ft 2 kts 40°
2026-04-25 18:08 47.62180 -117.53702 2367 ft 7 kts 347°
2026-04-25 18:08 47.62220 -117.53747 2367 ft 9 kts 316°
2026-04-25 18:08 47.62278 -117.53792 2367 ft 9 kts 342°
2026-04-25 18:08 47.62321 -117.53818 2367 ft 0 kts 335°